Location: Clairmont
(55.2667°N, 118.8000°W)
Time: 14:03:03
(UTC+00:00)

Envisat - Pass Details

Date: 30 October 2020
Orbit: 764 x 766 km, 98.1° (Epoch: 03 December)

Event Time Altitude Azimuth Distance (km) Brightness Sun altitude
Rises 13:25:37 0° 19° (NNE) 3,248 6.4 -13.4°
Reaches altitude 10° 13:28:05 10° 27° (NNE) 2,317 5.8 -13.0°
Maximum altitude 13:32:52 39° 96° (E) 1,140 4.6 -12.4°
Drops below altitude 10° 13:37:36 10° 165° (SSE) 2,299 5.8 -11.7°
Sets 13:40:02 0° 173° (S) 3,221 6.4 -11.3°
